Starlink 4113

decayed
NORAD ID: 53270 Int'l Des: 2022-086 Owner: SPXS Country: US Constellation: starlink
LEOCIRCULAR

关于 Starlink 4113

正在加载描述...

高度历史

Altitude vs Time

uPlot chart will show altitude changes over time

两行轨道根数

1 53270U 22086AE 22222.30201052 .24301438 12221-4 25950-2 0 9998
2 53270 53.2069 317.7790 0015423 95.0846 13.6837 16.36277687 3302
Epoch: Aug 10, 2022 • Age: 28367 hours

当前状态

Position data unavailable
发射日期 Jul 24, 2022
运行时间 3.2 years
衰减日期 Aug 10, 2022
类型 internet

技术详情

分类 Payload
质量 297.00 kg
干质量 275.00 kg
总质量 297.00 kg
长度 0.20 m
直径 2.80 m
跨度 9.00 m
形状 Box + pan
制造商 SPXS
平台类型 Starlink
阶段状态 Unknown Transfer Status
所有者/国家 SPXS/US

大型星座

Loading constellations...